Flag for Canada Weather past 2 weeks in Dawson Creek, British Columbia, Canada

Now
46 °F

Passing clouds.


Feels Like: 44 °F
Forecast: 42 / 58 °F
Wind: 5 mph from Southwest

Location: Dawson Creek Airport

Current Time: Aug 31, 2015 at 11:59:40 PM

Latest Report: Aug 31, 2015 at 11:00 PM


Visibility: 9 mi

Pressure: 29.56 "Hg (27.25 "Hg at 668m altitude)

Humidity: 71%

Dew point: 37 °F

Location of Dawson CreekLocation

Historic Weather in Dawson Creek — Graph

°F

Dawson Creek temperature yesterday

Maximum temperature yesterday: 66 °F (at 3:00 PM)
Minimum temperature yesterday: 48 °F (at 12:00 AM)
Average temperature yesterday: 57 °F

Past Weeks' High & Low Weather Summary

 TemperatureHumidityPressure
High77 °F (Aug 27, 3:00 PM)100% (Aug 18, 2:00 AM)30.26 "Hg (Aug 18, 2:00 AM)
Low30 °F (Aug 22, 5:00 AM)18% (Aug 27, 3:00 PM)29.36 "Hg (Aug 31, 12:00 AM)
Average56 °F65%29.87 "Hg
* Reported Aug 16 10:00 PM — Aug 31 10:00 PM, Dawson Creek, Weather by CustomWeather, © 2015

Note: Actual official high and low records may vary slightly from our data, if they occured in-between our weather recording intervals... More about our weather records

Advertising

Dawson Creek weather history for previous 24 hours

 ConditionsComfort  
Time TempWeatherWind HumidityBarometerVisibility
10:00 PM
Mon, Aug 31
43 °FClear.9 mph81%29.58 "Hg9 mi
9:00 PM45 °FPassing clouds.3 mph71%29.57 "Hg9 mi
8:00 PM50 °FPassing clouds.3 mph58%29.57 "Hg9 mi
7:00 PM54 °FSunny.5 mph51%29.58 "Hg9 mi
6:00 PM57 °FScattered clouds.17 mph44%29.58 "Hg9 mi
5:00 PM54 °FPartly sunny.15 mph63%29.60 "Hg9 mi
4:00 PM61 °FPartly sunny.17 mph34%29.55 "Hg9 mi
3:00 PM63 °FScattered clouds.16 mph30%29.53 "Hg9 mi
2:00 PM61 °FScattered clouds.20 mph34%29.54 "Hg9 mi
1:00 PM59 °FSunny.22 mph34%29.53 "Hg9 mi
12:00 PM61 °FSunny.26 mph34%29.51 "Hg9 mi
11:00 AM59 °FSunny.28 mph36%29.49 "Hg9 mi
10:00 AM57 °FSunny.22 mph39%29.49 "Hg9 mi
9:00 AM55 °FSunny.13 mph55%29.49 "Hg9 mi
8:00 AM52 °FSunny.8 mph67%29.49 "Hg9 mi
7:00 AM50 °FPassing clouds.12 mph67%29.49 "Hg9 mi
6:00 AM48 °FClear.9 mph76%29.45 "Hg9 mi
5:00 AM50 °FClear.8 mph67%29.43 "Hg9 mi
4:00 AM50 °FClear.9 mph67%29.41 "Hg9 mi
3:00 AM52 °FPassing clouds.10 mph67%29.39 "Hg9 mi
2:00 AM52 °FClear.9 mph67%29.36 "Hg9 mi
1:00 AM54 °FPassing clouds.12 mph58%29.36 "Hg9 mi
12:00 AM55 °FMostly cloudy.13 mph55%29.36 "Hg9 mi
11:00 PM
Sun, Aug 30
55 °FMostly cloudy.9 mph59%29.36 "Hg9 mi
Weather by CustomWeather, © 2015

See weather overviewHow to use our weather pages